Theta_e
323 319 322 320 307 308 303 305 311 309 310 316 317 316 314 317 312 306 334 338 337 337 343 341 343 344 344 343 343 343 344 344 345 345 344 342 342 342 342 342 343 342 340 341 340 339 339 338 337
318 316 322 316 303 299 302 306 308 312 314 316 317 317 316 315 324 327 331 338 337 338 342 338 341 343 343 345 344 343 341 343 344 343 342 340 340 339 339 339 342 341 341 341 339 338 337 336 336
315 316 315 308 304 300 301 305 312 311 316 316 315 317 315 318 327 330 337 339 338 341 342 338 341 343 342 344 343 343 342 342 340 340 339 338 338 338 340 339 339 340 340 340 338 336 336 334 333
313 315 312 305 298 302 302 305 311 311 311 312 316 313 320 327 329 334 339 339 337 341 342 338 342 344 343 343 343 342 343 342 341 339 339 337 336 339 338 338 336 338 338 337 335 336 334 332 331
314 312 304 301 299 302 304 304 312 310 311 312 315 313 317 328 334 338 338 338 335 341 341 338 341 343 344 342 341 342 343 344 342 341 340 338 337 336 334 335 336 334 334 335 335 334 332 331 331
309 310 303 301 303 302 303 306 311 310 310 312 312 314 318 332 333 335 339 337 336 340 340 338 335 339 341 342 343 342 343 343 343 342 341 339 338 336 335 334 334 333 334 335 334 333 331 330 329
307 306 303 303 303 303 305 308 310 310 309 311 316 311 320 326 333 336 338 337 335 340 339 339 338 337 335 337 338 340 340 341 341 341 341 339 338 337 336 335 333 333 333 333 333 331 330 328 328
309 307 301 303 303 304 306 308 309 310 309 315 319 309 313 328 331 335 337 335 334 339 340 339 338 337 338 338 332 334 336 337 336 336 334 331 331 332 332 331 332 331 331 331 331 330 328 327 326
306 303 300 301 300 305 305 306 306 308 310 314 318 314 321 332 331 331 331 331 331 333 335 339 338 337 337 337 333 331 331 331 330 330 327 329 334 333 331 329 331 331 330 329 329 328 326 324 323
305 303 302 303 304 302 303 307 306 306 309 309 313 320 327 329 328 326 325 326 327 329 331 336 337 337 336 334 337 336 336 336 336 335 336 335 334 333 331 326 326 327 327 327 326 324 321 323 325
302 302 302 302 303 303 302 303 306 306 305 311 310 317 324 325 326 326 328 328 328 330 330 333 335 334 336 335 335 335 335 334 334 333 333 334 332 332 332 332 330 329 321 325 325 325 326 324 325
299 300 301 302 302 301 301 303 302 305 310 307 313 320 325 324 325 328 327 329 329 329 330 330 333 333 334 337 335 335 333 332 331 332 331 331 330 331 330 329 329 329 329 326 327 326 326 325 324
300 300 301 301 300 301 301 301 302 303 309 309 313 321 323 326 327 329 330 331 330 328 329 331 331 332 332 333 335 335 333 332 330 330 330 330 329 329 329 328 327 327 327 326 325 326 325 325 324
306 301 300 299 300 301 300 301 300 305 308 309 314 318 322 324 326 328 329 327 329 330 329 331 328 333 334 333 333 334 334 333 331 329 329 329 329 329 328 328 327 326 326 326 325 324 324 324 323
301 298 300 299 299 300 302 299 299 306 306 308 312 316 320 323 326 327 328 328 328 329 330 330 330 332 332 332 333 332 333 333 331 330 329 328 328 328 328 328 327 327 325 324 324 323 323 322 322
297 300 296 304 300 300 300 299 302 305 305 306 311 315 318 322 325 327 329 329 330 331 332 332 330 332 332 332 332 331 331 332 333 332 330 328 327 328 328 328 327 328 325 324 323 323 322 322 321
293 296 298 300 300 299 298 300 301 303 303 305 308 313 317 319 323 326 328 329 331 333 333 332 332 332 332 332 332 331 330 328 333 333 332 330 328 328 328 327 328 328 326 324 323 322 322 321 321
291 292 294 298 298 296 296 297 302 299 301 304 306 309 314 317 320 325 328 329 331 333 334 334 333 333 333 333 332 331 331 333 333 333 333 332 329 327 326 324 324 323 321 322 322 323 321 321 321
298 293 295 295 298 296 298 299 302 305 299 300 304 305 309 314 319 323 326 328 330 332 332 333 332 333 332 331 329 328 327 331 332 333 334 333 331 325 323 323 324 321 319 320 319 318 317 317 318
292 290 293 295 294 295 297 295 299 301 301 301 302 303 305 308 314 319 323 326 327 329 331 332 332 333 333 332 332 331 331 332 332 333 333 333 330 327 325 325 325 322 320 319 318 314 312 314 316
289 290 291 294 292 294 293 293 295 298 299 300 300 302 304 304 306 309 317 323 326 327 329 330 332 333 333 333 333 332 333 332 331 332 332 333 332 330 326 325 324 322 320 320 318 316 314 315 314
291 293 294 291 290 289 291 290 295 296 297 297 299 301 301 302 302 304 307 315 322 326 330 330 331 331 333 334 333 330 328 327 329 331 332 333 333 331 330 328 325 323 320 320 319 318 317 316 316
295 294 292 291 290 288 290 287 293 293 293 296 299 301 303 304 304 304 305 308 313 321 327 330 329 331 332 333 332 331 329 331 332 332 331 332 331 331 331 330 329 327 321 322 321 318 318 317 318
292 291 290 290 289 285 290 288 291 293 295 298 301 302 302 304 305 305 305 306 306 309 314 323 326 328 331 330 331 330 329 330 330 330 329 330 330 330 329 327 327 327 324 322 323 321 318 319 318
293 291 283 282 283 283 285 285 291 295 297 297 299 301 302 302 303 302 301 301 303 303 305 307 316 321 325 328 329 330 330 330 330 329 328 328 328 328 325 325 324 326 325 323 324 321 318 319 318
291 292 286 280 280 285 283 283 290 296 299 300 298 299 299 298 300 301 302 301 300 301 302 303 306 311 318 323 325 328 330 329 329 328 329 328 328 330 329 325 325 326 325 323 321 322 322 321 318
290 288 293 283 277 282 286 288 292 295 295 296 296 297 298 300 299 300 301 301 300 301 302 303 304 309 316 320 322 324 326 326 326 327 328 328 328 327 328 327 326 323 321 320 318 317 315 313 310
292 293 285 286 280 279 284 284 288 292 294 295 295 297 299 299 300 299 301 302 303 304 305 306 305 307 314 319 320 321 322 324 325 326 325 325 326 324 324 326 325 322 320 317 317 316 310 307 307
288 287 288 290 286 282 281 287 293 295 294 295 296 296 296 299 299 299 301 303 305 307 307 308 307 306 306 310 315 313 313 314 317 321 324 323 322 323 321 319 317 314 314 313 311 308 306 307 303
293 290 290 285 282 283 282 286 292 294 296 293 295 295 296 296 297 300 301 302 304 306 308 308 308 308 308 307 306 306 306 306 306 312 319 321 320 316 315 313 311 310 310 310 309 306 304 302 302
Wind_Speed
3 4 2 4 4 2 5 4 2 8 8 2 9 3 2 4 2 5 7 5 14 12 11 11 8 9 9 12 10 11 9 12 13 14 16 16 15 15 17 16 13 14 16 17 17 18 18 17 17
5 2 1 1 3 4 5 3 7 7 6 8 6 5 4 4 4 8 12 8 14 13 11 11 8 9 9 12 10 12 10 9 10 14 15 13 13 14 16 16 15 15 16 16 17 17 16 16 15
1 4 2 1 1 2 3 5 8 6 9 7 5 2 2 4 4 13 7 16 14 12 11 11 8 9 9 11 11 12 10 10 11 12 13 14 13 14 16 16 16 15 16 16 16 16 16 16 15
2 1 2 2 1 1 2 4 6 11 3 3 1 4 3 3 7 6 14 17 14 12 11 12 9 9 10 10 9 10 11 11 11 12 13 15 14 13 14 15 15 14 14 14 14 15 15 15 15
3 1 2 1 1 1 2 1 10 11 7 6 4 6 4 4 5 10 16 15 15 13 11 13 9 9 10 9 8 8 10 11 11 11 14 15 15 14 13 13 13 12 12 13 14 14 15 14 14
3 1 4 7 4 1 2 3 8 8 6 6 5 6 5 5 9 11 14 14 14 14 12 12 9 8 9 10 8 8 9 12 10 10 14 14 13 14 13 13 12 12 12 12 12 13 13 13 13
3 3 4 3 2 2 2 5 10 11 8 6 3 6 4 7 9 13 14 13 13 13 12 11 11 10 8 9 9 9 10 11 11 13 12 11 11 12 11 11 11 11 11 11 11 12 12 12 12
3 2 3 3 4 4 3 8 4 10 6 2 3 5 5 13 12 13 12 12 12 12 11 11 10 11 10 9 7 8 9 9 10 10 10 10 10 10 10 9 9 10 10 9 10 11 11 11 11
1 4 6 5 5 2 4 7 3 1 5 3 5 0 4 18 15 14 13 11 10 10 11 10 10 9 9 9 8 7 8 8 8 9 8 7 5 6 6 9 8 9 9 9 9 9 9 8 9
4 4 9 3 4 1 3 6 6 5 6 6 6 4 8 16 17 17 16 14 14 13 12 10 12 10 9 7 10 7 7 6 5 6 7 5 6 5 5 7 7 7 8 8 7 6 4 2 3
3 5 5 3 3 3 2 5 5 6 8 11 13 13 13 14 16 17 16 16 16 15 11 12 11 11 11 8 7 5 4 5 5 7 6 6 5 5 4 4 4 4 3 3 3 4 2 3 2
4 3 3 5 4 3 3 3 4 10 9 1 7 15 17 18 18 19 17 16 16 16 15 14 14 11 10 7 7 7 6 6 5 6 7 5 4 5 4 3 3 3 2 2 1 1 1 1 1
5 5 5 3 3 3 1 4 4 9 12 1 8 14 17 17 17 16 16 14 15 15 14 15 13 13 10 10 7 6 6 6 7 7 7 6 5 5 5 4 4 4 4 4 3 2 2 1 1
3 6 5 2 2 3 4 3 5 5 8 8 11 15 15 17 19 16 16 17 16 14 14 14 14 14 13 11 11 7 7 7 7 7 7 8 6 5 5 4 4 4 4 3 3 2 2 2 3
3 2 1 4 3 4 5 8 10 6 5 11 12 13 14 15 16 19 18 18 17 14 14 15 15 15 14 13 11 9 8 7 7 7 9 10 8 7 6 5 4 4 4 4 3 4 4 4 3
2 3 3 5 7 4 6 15 8 7 9 13 13 11 12 15 18 17 17 18 17 16 17 16 14 17 15 13 10 9 9 8 8 7 7 11 10 9 8 5 5 4 4 4 4 4 4 4 4
2 5 12 3 9 4 10 9 3 4 11 14 13 12 11 13 15 17 17 17 18 18 16 16 17 17 17 14 10 10 11 9 9 9 8 11 11 11 8 7 6 7 5 5 5 4 5 4 4
8 5 5 8 6 7 7 15 13 5 9 14 12 12 13 14 19 18 18 17 17 17 16 16 14 16 16 11 10 9 9 9 9 9 9 12 10 11 8 5 6 6 4 4 5 6 4 5 5
10 7 10 4 2 4 13 17 17 14 9 11 14 13 14 17 13 14 16 17 17 16 17 17 16 17 12 11 11 10 10 10 10 10 13 14 12 11 10 7 8 7 7 7 6 3 5 4 4
3 4 7 5 1 5 12 18 17 17 17 15 15 15 15 15 13 13 15 16 18 18 19 18 19 18 15 11 10 9 10 10 11 10 12 13 13 13 11 10 9 8 6 7 7 6 2 3 3
6 9 7 6 0 5 8 16 17 14 18 14 13 14 14 16 15 15 16 18 17 20 21 21 21 19 17 15 10 9 7 7 8 9 9 11 14 12 11 10 8 7 7 6 7 7 8 5 4
12 12 10 5 5 7 3 9 8 6 16 14 18 18 17 16 12 10 15 18 21 21 18 20 17 19 17 19 15 17 12 12 12 11 11 10 13 12 12 11 9 7 6 7 8 8 8 6 7
6 11 9 3 6 5 9 8 3 3 10 17 19 19 19 17 16 17 15 16 19 15 17 16 18 18 18 17 18 14 16 11 9 8 11 12 10 12 11 11 11 10 7 9 9 8 9 7 5
16 12 5 2 3 10 14 11 8 10 15 16 18 20 20 19 17 14 7 9 12 10 10 13 18 20 16 18 21 20 19 16 10 11 9 8 8 7 10 9 10 11 9 9 8 7 7 7 6
10 16 4 5 7 8 2 8 13 7 16 15 13 12 13 14 14 13 12 11 11 13 13 13 15 18 17 18 18 19 18 16 15 13 9 10 8 8 10 10 9 9 10 6 6 6 6 7 7
21 18 7 10 8 3 2 11 5 10 17 15 13 12 8 6 8 9 7 7 8 9 10 11 13 15 16 16 17 15 16 10 10 11 9 8 9 8 9 8 8 11 9 6 5 6 6 5 5
17 17 5 6 3 1 7 5 11 17 15 9 12 10 13 12 10 9 5 5 5 5 7 9 11 12 12 13 12 12 13 13 10 12 10 9 9 7 8 9 9 5 4 6 6 4 4 4 3
15 13 8 4 6 7 5 6 10 5 12 7 8 10 12 12 12 8 6 6 5 3 4 5 7 10 10 11 10 10 12 11 10 9 10 10 8 7 8 8 7 7 8 7 7 5 5 5 3
10 15 6 7 4 4 2 4 8 13 7 6 9 9 9 9 8 8 7 6 6 6 6 7 6 6 7 8 9 7 6 5 4 5 8 7 7 8 7 7 7 7 6 6 6 5 7 7 5
12 13 13 7 7 4 1 6 4 7 7 3 7 6 4 4 5 8 8 8 8 8 8 7 7 7 7 7 7 6 5 6 7 8 6 7 8 6 7 6 7 7 7 8 9 8 7 7 8
Wind_Direction
335 319 284 250 223 243 136 138 107 135 162 105 141 204 172 18 347 45 138 105 135 141 132 139 128 112 95 117 109 94 94 105 94 92 83 76 81 80 82 81 83 89 83 79 77 73 69 66 65
349 292 249 327 245 194 141 142 165 141 120 138 135 137 174 98 75 112 142 157 146 140 140 137 128 116 98 117 107 108 94 86 100 92 93 88 88 85 82 76 72 74 80 78 77 75 74 72 69
74 347 295 349 286 207 149 184 139 113 136 162 145 313 69 92 97 148 116 151 146 144 140 127 135 124 118 107 110 108 107 99 107 105 102 95 92 93 84 80 74 72 76 76 74 74 72 66 64
25 78 84 261 203 91 35 167 151 142 171 212 188 140 124 29 144 143 146 147 145 145 141 137 140 129 123 100 110 104 120 110 103 106 105 98 91 86 81 74 76 71 73 78 78 76 72 67 64
52 202 127 126 234 275 243 320 175 163 153 166 198 150 117 112 120 138 153 152 146 150 143 146 140 128 128 115 105 101 108 121 110 113 112 109 105 98 92 82 81 79 81 82 80 76 70 65 64
123 279 202 214 203 218 237 196 191 178 156 142 191 157 113 100 135 157 158 154 151 151 150 142 139 129 125 116 114 105 96 101 108 113 119 114 105 101 100 93 87 87 80 81 84 81 75 69 69
150 195 221 204 219 258 208 162 198 185 161 181 136 171 108 165 153 162 161 150 158 151 154 151 152 141 123 122 111 107 92 89 84 82 87 84 87 92 91 90 89 90 85 89 93 88 81 77 78
136 150 165 222 236 261 145 176 198 194 176 99 190 189 165 167 159 159 158 156 160 155 157 161 156 163 156 147 113 107 100 96 93 92 98 96 95 97 93 108 85 94 87 86 94 89 83 79 75
205 173 203 202 192 225 146 200 137 62 157 196 176 216 78 137 150 151 157 161 164 170 170 166 166 163 160 152 132 125 113 103 110 113 111 148 119 114 131 72 88 98 100 90 91 93 92 93 80
196 218 199 181 175 203 190 212 165 194 182 195 179 140 135 149 163 165 170 172 177 179 177 174 175 170 164 160 161 159 148 159 147 145 150 136 132 103 96 94 91 80 83 86 91 91 101 229 75
174 216 169 180 192 193 186 201 197 202 214 218 209 170 162 170 177 179 182 182 185 183 180 184 181 178 176 170 172 169 169 163 160 160 160 146 148 159 165 146 160 152 184 147 160 153 98 56 34
179 167 171 145 149 165 197 131 212 218 224 354 234 172 163 180 187 187 189 190 188 188 186 187 187 185 186 184 188 176 178 172 173 175 173 170 168 167 168 168 161 185 189 169 190 142 119 119 69
233 147 180 165 174 208 225 218 254 241 237 294 152 170 178 187 194 193 195 195 193 195 191 188 189 189 192 195 195 188 190 190 181 181 186 189 180 178 177 175 185 193 190 204 195 194 210 228 293
187 174 130 152 201 198 223 216 198 236 223 194 176 187 191 194 194 193 198 202 201 199 197 190 194 196 191 198 203 195 197 195 192 193 190 198 197 191 191 192 197 205 216 210 228 235 250 261 262
79 118 285 212 198 239 207 229 223 226 180 210 204 196 195 200 197 201 199 202 202 201 196 197 195 200 199 201 201 207 207 202 203 202 197 198 202 199 200 199 208 210 206 221 215 224 245 251 248
276 252 168 216 189 205 212 258 244 209 194 214 217 212 201 201 206 203 204 205 201 202 201 196 195 196 201 201 200 204 210 213 210 208 201 203 205 206 203 209 213 205 203 212 223 229 243 254 256
357 222 216 231 206 198 212 261 247 194 210 224 215 215 215 215 211 208 207 205 202 205 201 198 198 199 198 205 202 205 212 209 215 213 210 205 206 207 214 215 216 202 207 211 221 229 243 256 260
175 218 230 211 171 213 209 246 255 213 231 239 224 219 220 224 221 208 206 207 205 208 206 203 202 205 200 202 201 205 209 217 218 216 216 212 207 205 209 210 205 190 199 224 225 233 224 265 279
183 160 241 222 182 225 236 252 253 247 226 241 240 219 219 225 224 215 207 206 206 205 208 210 205 208 200 202 199 207 211 215 218 216 217 212 208 197 200 211 211 199 203 209 212 222 243 243 245
133 123 242 272 163 223 264 261 259 251 236 235 235 234 229 228 209 210 209 207 207 207 211 210 214 208 205 207 203 204 210 217 219 218 219 216 208 199 204 209 209 194 198 207 200 190 195 240 191
194 194 211 262 143 235 287 269 248 239 229 235 241 243 241 236 224 210 203 207 208 215 211 213 213 212 206 206 206 214 220 223 215 221 219 217 214 211 198 202 198 192 196 205 199 196 201 226 211
190 197 217 213 230 254 252 283 242 263 235 218 232 230 232 230 227 231 214 205 206 216 212 213 211 211 210 205 205 207 210 213 218 216 219 217 217 215 210 212 206 201 192 203 210 199 209 210 236
189 166 184 174 242 280 223 262 239 263 256 238 228 230 226 227 228 231 213 214 218 216 210 210 210 212 204 203 208 208 218 220 217 213 218 220 216 217 209 212 214 212 198 212 207 202 211 209 240
136 119 95 126 261 255 244 232 249 239 248 249 239 232 229 229 230 238 226 217 225 215 215 214 212 215 206 201 208 213 215 220 213 212 215 214 213 210 213 206 211 216 214 213 221 211 197 219 226
181 161 154 219 216 247 85 241 260 245 249 235 250 248 232 232 233 237 232 220 228 219 215 215 219 219 209 209 212 215 216 217 220 213 213 209 208 209 209 199 203 214 221 216 212 204 202 220 229
187 180 184 189 198 191 138 239 232 250 257 267 265 267 255 259 237 228 232 235 239 235 224 219 219 225 215 212 216 214 217 216 219 215 209 213 216 218 212 197 205 222 213 190 179 211 217 221 235
180 210 154 105 23 229 209 249 258 253 260 267 265 252 250 235 223 224 222 215 221 218 207 207 210 219 216 210 212 212 215 215 212 216 213 209 218 225 216 205 208 194 170 177 172 186 177 186 173
190 146 186 229 191 227 209 252 235 205 233 265 268 251 253 231 230 214 198 192 161 164 153 176 197 202 198 203 198 210 212 211 209 210 202 199 200 199 201 202 192 179 184 167 170 173 146 147 162
158 192 192 188 222 239 258 224 219 234 169 270 290 268 284 234 214 188 170 173 154 151 174 177 167 179 188 194 199 195 196 189 183 199 197 189 185 194 183 166 158 156 163 150 154 164 153 154 142
198 194 191 189 191 260 15 257 174 214 204 272 311 290 297 256 197 177 167 174 173 175 169 175 174 175 182 169 177 190 197 204 205 213 201 187 188 163 159 157 157 148 154 169 169 154 150 143 161